ECHOSTAR 3

导读

EchoStar 3是美国EchoStar公司运营的通信卫星,由洛克希德·马丁公司建造,于1997年10月5日搭乘Atlas 2AS火箭发射升空。该卫星属于地球静止轨道卫星,主要承担卫星电视广播传输服务,设计服役年限期满后超期服役多年,2017年8月运营方EchoStar与其失去联系,正式结束通信服务使命,在EchoStar早期卫星通信网络布局中发挥了关键作用。

基本信息
目录编号:
25004
目录名称:
ECHOSTAR 3
国际标识:
1997-059A
轨道中心:
EARTH
卫星名称:
ECHOSTAR 3
卫星全名:
--
卫星状态:
在轨 (已飞行10568 天)
发射日期:
1997-10-05 UTC
国别 :
美国 (US)
星等 :
--
该卫星已列入 空间交会检测服务 Space Conjunction Data Service (SCDS) ,当前飞行风险评估等级: 无高风险
轨道信息
数据来源 国际轨道数据
星历时间: 2026-09-11T12:31:01+0800
10小时前
查看轨道信息
半长轴: 42560.589km
偏心率: 0.0009514
轨道倾角: 9.722°
近地点辐角 358.845°
升交点赤经 54.877°
平近点角 178.008°
近地点: 36141.959km
远地点: 36222.945km
周期: 1456.368分钟
每日圈数: 0.988761
详细信息
使用方式:
暂无
2D轨道图
3D轨道图
轨道高度分析图
轨道倾角分析图
轨道综合分析图
查看轨道综合分析图
与全量物体交会距离演化趋势
与全量物体交会风险概率演化趋势